Beaver Island, MI

3:26 PM EDT on April 28, 2017 (GMT -0400)
Beaver Island

Weather History for KSJX - June, 2013

Change the Weather History Date:

Saturday, June 15, 2013

  Actual Average Record
Temperature  
Mean Temperature 52 °F -  
Max Temperature 65 °F 72 °F 87 °F (2007)
Min Temperature 38 °F 50 °F 37 °F (1969)
Degree Days  
Heating Degree Days 14    
Growing Degree Days 2 (Base 50)    
Moisture  
Dew Point 50 °F    
Average Humidity 87    
Maximum Humidity 100    
Minimum Humidity 58    
Precipitation  
Precipitation 0.00 in - - ()
Sea Level Pressure  
Sea Level Pressure 29.97 in    
Wind  
Wind Speed 3 mph (SSW)    
Max Wind Speed 14 mph    
Max Gust Speed -    
Visibility 9 miles    
Events Rain    
Averages and records for this station are not official NWS values.
T = Trace of Precipitation, MM = Missing Value Source: NWS Daily Summary

Daily Weather History Graph

Daily Weather History Graph

Search for Another Location

Airport or City:

Trip Planner

Search our weather history database for the weather conditions in past years. The results will help you decide how hot, cold, wet, or windy it might be!

Date:

Astronomy

Jun. 15, 2013 Rise Set
Actual Time 5:52 AM EDT 9:33 PM EDT
Civil Twilight 5:13 AM EDT 10:11 PM EDT
Nautical Twilight 4:22 AM EDT 11:03 PM EDT
Astronomical Twilight 3:13 AM EDT 12:13 AM EDT
Moon 12:44 PM EDT (6/15) 12:51 AM EDT (6/15)
Length of Visible Light 16h 57m
Length of Day
15h 41m
Waxing Crescent, 39% of the Moon is Illuminated
Jun 15
Waxing Crescent
Jun 16
First Quarter
Jun 23
Full
Jun 30
Last Quarter
Jul 8
New

Hourly Weather History & Observations

Time (EDT) Temp. Windchill Dew Point Humidity Pressure Visibility Wind Dir Wind Speed Gust Speed Precip Events Conditions
12:14 AM 40.1 °F - 40.1 °F 100% 30.05 in 10.0 mi Calm Calm - N/A   Clear
12:35 AM 38.8 °F - 38.8 °F 100% 30.04 in 10.0 mi Calm Calm - N/A   Clear
12:55 AM 39.2 °F - 39.2 °F 100% 30.03 in 10.0 mi Calm Calm - N/A   Clear
1:14 AM 38.8 °F - 38.8 °F 100% 30.03 in 10.0 mi Calm Calm - N/A   Clear
1:35 AM 38.7 °F - 38.7 °F 100% 30.03 in 10.0 mi Calm Calm - N/A   Clear
1:55 AM 39.7 °F - 39.7 °F 100% 30.03 in 10.0 mi Calm Calm - N/A   Clear
2:15 AM 39.6 °F 37.4 °F 39.6 °F 100% 30.01 in 10.0 mi ESE 3.5 mph - N/A   Clear
2:35 AM 39.2 °F - 39.2 °F 100% 30.02 in 10.0 mi Calm Calm - N/A   Clear
2:55 AM 39.2 °F - 39.2 °F 100% 30.04 in 10.0 mi Calm Calm - N/A   Clear
3:15 AM 40.3 °F - 40.3 °F 100% 30.03 in 10.0 mi Calm Calm - N/A   Clear
3:35 AM 41.0 °F - 41.0 °F 100% 30.03 in 10.0 mi Calm Calm - N/A   Clear
3:55 AM 41.5 °F - 41.5 °F 100% 30.02 in 10.0 mi Calm Calm - N/A   Clear
4:15 AM 42.1 °F - 42.1 °F 100% 30.03 in 10.0 mi Calm Calm - N/A   Clear
4:35 AM 43.0 °F - 43.0 °F 100% 30.01 in 10.0 mi Calm Calm - N/A   Clear
4:55 AM 43.7 °F - 43.7 °F 100% 30.01 in 10.0 mi Calm Calm - N/A   Clear
5:15 AM 45.5 °F - 45.3 °F 99% 30.01 in 10.0 mi Calm Calm - N/A   Clear
5:34 AM 44.8 °F - 44.8 °F 100% 30.01 in 10.0 mi Calm Calm - N/A   Clear
5:55 AM 45.1 °F - 45.1 °F 100% 30.02 in 10.0 mi Calm Calm - N/A   Scattered Clouds
6:15 AM 45.1 °F - 45.1 °F 100% 30.02 in 10.0 mi Calm Calm - N/A   Scattered Clouds
6:35 AM 45.0 °F - 45.0 °F 100% 30.03 in 10.0 mi Calm Calm - N/A   Clear
6:55 AM 44.8 °F - 44.8 °F 100% 30.03 in 10.0 mi Calm Calm - N/A   Clear
7:15 AM 46.6 °F - 46.6 °F 100% 30.03 in 10.0 mi Calm Calm - N/A   Clear
7:35 AM 48.9 °F - 47.8 °F 96% 30.03 in 10.0 mi Calm Calm - N/A   Clear
7:55 AM 50.4 °F - 48.0 °F 92% 30.03 in 10.0 mi Calm Calm - N/A   Scattered Clouds
8:15 AM 51.1 °F - 48.7 °F 92% 30.03 in 10.0 mi Calm Calm - N/A   Clear
8:35 AM 52.3 °F - 48.0 °F 85% 30.03 in 10.0 mi Calm Calm - N/A   Clear
8:55 AM 53.6 °F - 49.3 °F 85% 30.03 in 10.0 mi Calm Calm - N/A   Clear
9:14 AM 55.0 °F - 47.1 °F 75% 30.03 in 10.0 mi Calm Calm - N/A   Clear
9:35 AM 56.1 °F - 45.3 °F 67% 30.02 in 10.0 mi SSW 3.5 mph - N/A   Clear
9:55 AM 56.5 °F - 46.0 °F 68% 30.02 in 10.0 mi SSW 6.9 mph - N/A   Clear
10:15 AM 56.7 °F - 45.5 °F 66% 30.02 in 10.0 mi SSW 3.5 mph - N/A   Clear
10:35 AM 58.1 °F - 44.2 °F 60% 30.00 in 10.0 mi SSW 3.5 mph - N/A   Clear
10:55 AM 58.1 °F - 46.4 °F 65% 29.98 in 10.0 mi SSE 3.5 mph - N/A   Clear
11:15 AM 59.4 °F - 48.0 °F 66% 29.97 in 10.0 mi SSE 4.6 mph - N/A   Scattered Clouds
11:35 AM 59.4 °F - 48.6 °F 67% 29.97 in 10.0 mi South 5.8 mph - N/A   Scattered Clouds
11:55 AM 61.7 °F - 48.6 °F 62% 29.96 in 10.0 mi South 4.6 mph - N/A   Clear
12:14 PM 63.3 °F - 48.7 °F 59% 29.97 in 10.0 mi SSE 5.8 mph - N/A   Clear
12:35 PM 64.0 °F - 48.9 °F 58% 29.98 in 10.0 mi SSE 4.6 mph - N/A   Clear
12:55 PM 64.4 °F - 49.6 °F 59% 29.97 in 10.0 mi South 5.8 mph - N/A   Clear
1:15 PM 64.8 °F - 50.9 °F 61% 29.97 in 10.0 mi SSW 5.8 mph - N/A   Clear
1:35 PM 65.3 °F - 51.6 °F 61% 29.97 in 10.0 mi SW 8.1 mph - N/A   Clear
1:55 PM 64.9 °F - 50.7 °F 60% 29.98 in 10.0 mi SW 9.2 mph - N/A   Scattered Clouds
2:15 PM 62.8 °F - 50.7 °F 65% 29.98 in 10.0 mi SW 12.7 mph - N/A   Scattered Clouds
2:35 PM 61.9 °F - 52.0 °F 70% 29.97 in 10.0 mi SW 11.5 mph - N/A   Clear
2:54 PM 61.9 °F - 53.6 °F 74% 29.96 in 10.0 mi SW 8.1 mph - N/A   Clear
3:15 PM 63.9 °F - 55.4 °F 74% 29.95 in 10.0 mi SW 10.4 mph - N/A   Clear
3:35 PM 63.7 °F - 54.7 °F 72% 29.95 in 10.0 mi SW 13.8 mph - N/A   Clear
3:55 PM 65.1 °F - 56.8 °F 75% 29.95 in 10.0 mi SW 9.2 mph - N/A   Scattered Clouds
4:15 PM 64.0 °F - 57.2 °F 78% 29.96 in 10.0 mi SW 10.4 mph - N/A   Overcast
4:35 PM 61.2 °F - 56.1 °F 83% 29.96 in 10.0 mi SW 10.4 mph - N/A   Overcast
4:55 PM 62.8 °F - 58.8 °F 87% 29.95 in 10.0 mi SW 8.1 mph - N/A   Overcast
5:15 PM 61.5 °F - 59.7 °F 94% 29.94 in 10.0 mi SW 11.5 mph - N/A   Overcast
5:34 PM 61.3 °F - 59.9 °F 95% 29.93 in 10.0 mi SSW 8.1 mph - N/A   Overcast
5:55 PM 62.8 °F - 61.2 °F 94% 29.92 in 10.0 mi South 8.1 mph - N/A   Overcast
6:14 PM 63.0 °F - 61.3 °F 94% 29.90 in 10.0 mi South 8.1 mph - N/A   Mostly Cloudy
6:35 PM 61.9 °F - 60.8 °F 96% 29.90 in 10.0 mi South 5.8 mph - N/A   Overcast
6:55 PM 60.8 °F - 59.9 °F 97% 29.89 in 10.0 mi SSE 5.8 mph - N/A   Overcast
7:15 PM 60.8 °F - 60.1 °F 97% 29.88 in 10.0 mi SSW 9.2 mph - N/A   Overcast
7:35 PM 60.1 °F - 60.1 °F 100% 29.88 in 10.0 mi SSW 8.1 mph - N/A   Overcast
7:55 PM 59.9 °F - 59.9 °F 100% 29.87 in 10.0 mi SSW 5.8 mph - N/A   Overcast
8:15 PM 59.9 °F - 59.9 °F 100% 29.87 in 10.0 mi South 4.6 mph - N/A   Overcast
8:35 PM 59.2 °F - 59.2 °F 100% 29.86 in 10.0 mi SSE 4.6 mph - N/A   Overcast
8:54 PM 59.2 °F - 59.2 °F 100% 29.85 in 10.0 mi SSE 3.5 mph - N/A   Overcast
9:15 PM 59.5 °F - 59.5 °F 100% 29.85 in 10.0 mi WSW 5.8 mph - N/A   Overcast
9:35 PM 58.1 °F - 58.1 °F 100% 29.85 in 10.0 mi West 8.1 mph - N/A Rain Light Rain
9:55 PM 53.1 °F - 53.1 °F 100% 29.86 in 5.0 mi West 5.8 mph - N/A   Drizzle
10:15 PM - - - N/A% 29.86 in 3.0 mi WSW 4.6 mph - N/A   Drizzle
10:35 PM - - - N/A% 29.86 in 2.5 mi SW 6.9 mph - N/A   Drizzle
10:55 PM - - - N/A% 29.87 in 2.0 mi WSW 8.1 mph - N/A   Heavy Drizzle
11:15 PM - - - N/A% 29.85 in 1.8 mi SW 6.9 mph - N/A   Heavy Drizzle
11:34 PM - - - N/A% 29.84 in 2.0 mi SW 9.2 mph - N/A   Heavy Drizzle
11:55 PM - - - N/A% 29.84 in 2.0 mi SW 9.2 mph - N/A   Drizzle